KD2OZA Weather Reports


time (UTC)temp
F
wind
direction
speed
knots
gust
knots
rain 1hr
in
rain 24hr
in
rain mn
in
humidity
%
barometer
mb
20260509224552 53 340 0.9 4.3 0.00 0.33 0.31 86 1007.5
20260509224047 53 324 0.0 3.5 0.00 0.33 0.31 86 1007.6
20260509223547 53 290 1.7 4.3 0.00 0.33 0.31 86 1007.5
20260509223058 54 0 0.0 6.1 0.00 0.33 0.31 85 1007.5
20260509222547 54 311 0.9 6.1 0.00 0.33 0.31 85 1007.4
20260509222045 54 0 0.0 4.3 0.00 0.33 0.31 86 1007.5
20260509221554 54 314 0.9 4.3 0.00 0.33 0.31 86 1007.5
20260509221044 54 0 1.7 4.3 0.00 0.33 0.31 86 1007.6
20260509220544 54 345 0.0 4.3 0.00 0.33 0.31 87 1007.6
20260509215547 54 6 0.9 5.2 0.00 0.33 0.31 87 1007.8
20260509215047 54 300 0.0 5.2 0.00 0.33 0.31 87 1007.8
20260509214553 54 325 0.9 7.8 0.00 0.33 0.31 86 1007.8
20260509214048 54 310 0.9 7.8 0.00 0.33 0.31 87 1007.7
20260509213547 54 332 1.7 7.0 0.00 0.33 0.31 87 1007.9
20260509213058 53 75 2.6 7.0 0.00 0.33 0.31 87 1007.8
20260509212548 53 321 1.7 5.2 0.00 0.33 0.31 87 1007.8
20260509212048 54 0 0.9 5.2 0.00 0.33 0.31 87 1007.9
20260509211554 53 300 1.7 3.5 0.00 0.33 0.31 88 1007.9
20260509211048 53 0 0.9 3.5 0.00 0.33 0.31 88 1008.1
20260509210548 54 292 0.9 7.0 0.00 0.33 0.31 88 1008.0
20260509210055 54 313 1.7 7.0 0.00 0.33 0.31 88 1008.0
20260509205549 54 346 2.6 6.1 0.00 0.33 0.31 88 1008.0
20260509205047 54 301 1.7 5.2 0.00 0.33 0.31 88 1008.0
20260509204559 53 331 0.9 4.3 0.00 0.33 0.31 88 1008.2
20260509204048 53 336 0.9 3.5 0.00 0.33 0.31 88 1008.2
20260509203548 53 334 0.9 2.6 0.00 0.33 0.31 89 1008.2
20260509203054 53 322 0.0 3.5 0.00 0.33 0.31 90 1008.3
20260509202550 52 335 0.0 5.2 0.00 0.33 0.31 89 1008.4
20260509202049 52 0 0.9 5.2 0.00 0.33 0.31 89 1008.3
20260509201550 52 278 0.9 5.2 0.00 0.33 0.31 89 1008.3
20260509201047 52 348 1.7 5.2 0.00 0.33 0.31 89 1008.3
20260509200547 52 281 0.9 4.3 0.00 0.33 0.31 89 1008.1
20260509200053 52 0 0.0 5.2 0.00 0.33 0.31 90 1008.1
20260509195549 52 307 1.7 5.2 0.01 0.34 0.31 89 1008.1
20260509195051 52 0 0.0 7.0 0.01 0.34 0.31 90 1008.3
20260509194557 52 338 1.7 7.0 0.01 0.34 0.31 88 1008.3
20260509194048 52 319 0.9 4.3 0.02 0.34 0.31 89 1008.5
20260509193548 52 0 1.7 4.3 0.02 0.34 0.31 89 1008.6
20260509193056 51 294 0.9 7.8 0.02 0.34 0.31 90 1008.4
20260509192551 51 321 1.7 7.8 0.02 0.34 0.31 90 1008.7
20260509192047 51 314 2.6 7.8 0.03 0.34 0.31 90 1008.7
20260509191600 51 22 0.9 3.5 0.03 0.34 0.31 91 1008.9
20260509191053 51 330 0.0 5.2 0.03 0.34 0.31 91 1008.9
20260509190550 51 304 0.0 5.2 0.04 0.34 0.31 91 1008.9
20260509190057 51 352 2.6 5.2 0.04 0.34 0.31 90 1008.9
20260509185547 51 304 0.9 6.1 0.04 0.33 0.30 90 1009.1
20260509185048 51 345 1.7 7.0 0.04 0.33 0.30 90 1009.1
20260509184550 51 319 2.6 8.7 0.05 0.33 0.30 90 1009.1
20260509184048 51 288 2.6 8.7 0.04 0.32 0.29 91 1009.1
20260509183548 51 316 0.9 5.2 0.05 0.32 0.29 91 1009.1
20260509183056 51 301 0.0 5.2 0.05 0.32 0.29 91 1009.2
20260509182548 51 330 0.9 9.6 0.05 0.32 0.29 91 1009.2
20260509182047 51 308 0.9 9.6 0.05 0.31 0.28 91 1009.2
20260509181602 51 303 2.6 7.8 0.05 0.31 0.28 90 1009.0
20260509181048 51 295 0.9 7.8 0.04 0.30 0.27 91 1009.2
20260509180548 51 359 0.9 7.8 0.04 0.30 0.27 91 1009.2
20260509180058 51 321 0.0 7.0 0.04 0.30 0.27 91 1009.0
20260509175547 51 0 0.9 7.0 0.03 0.29 0.26 91 1009.1
20260509175049 51 3 0.9 4.3 0.04 0.29 0.26 91 1009.1
20260509174602 51 334 0.9 4.3 0.03 0.28 0.25 91 1009.2
20260509174049 51 300 0.9 2.6 0.04 0.28 0.25 90 1009.3
20260509173547 51 320 0.9 7.0 0.03 0.27 0.24 90 1009.1
20260509173107 51 326 1.7 7.0 0.04 0.27 0.24 90 1009.2
20260509172548 51 266 2.6 13.0 0.04 0.27 0.24 90 1009.2
20260509172048 51 328 1.7 13.0 0.04 0.26 0.23 90 1009.1
20260509171601 51 298 1.7 7.0 0.05 0.26 0.23 90 1009.0
20260509171047 51 314 0.0 7.0 0.05 0.26 0.23 91 1009.1
20260509170551 51 358 0.9 6.1 0.06 0.26 0.23 91 1009.1
20260509170055 51 301 0.9 5.2 0.06 0.26 0.23 91 1009.1
20260509165547 51 360 0.9 6.1 0.05 0.27 0.22 91 1009.0
20260509165047 51 47 0.9 7.8 0.06 0.27 0.22 91 1009.1
20260509164554 51 331 2.6 7.8 0.06 0.27 0.22 91 1009.1
20260509164047 51 309 0.9 4.3 0.05 0.26 0.21 91 1009.0
20260509163547 50 305 1.7 4.3 0.05 0.26 0.21 91 1009.1
20260509163103 50 325 0.9 3.5 0.04 0.25 0.20 91 1009.2
20260509162548 50 332 0.0 7.0 0.04 0.25 0.20 90 1009.2
20260509162049 50 295 2.6 7.0 0.03 0.24 0.19 90 1009.4
20260509161552 50 309 0.9 3.5 0.03 0.23 0.18 91 1009.3
20260509161048 50 302 0.9 3.5 0.03 0.23 0.18 90 1009.5
20260509160548 50 300 0.9 2.6 0.02 0.22 0.17 90 1009.6
20260509160054 51 0 0.0 2.6 0.02 0.22 0.17 91 1009.4
20260509155548 51 314 0.9 2.6 0.02 0.22 0.17 90 1009.5
20260509155048 51 322 0.0 3.5 0.02 0.21 0.16 91 1009.6
20260509154601 51 313 0.9 3.5 0.02 0.21 0.16 90 1009.5
20260509154047 50 321 0.9 3.5 0.03 0.21 0.16 90 1009.6
20260509153548 50 310 0.9 4.3 0.03 0.21 0.16 90 1009.6
20260509153049 50 338 0.9 7.0 0.03 0.21 0.16 90 1009.6
20260509152547 50 279 1.7 7.0 0.04 0.21 0.16 90 1009.7
20260509152048 50 300 2.6 7.0 0.04 0.21 0.16 89 1009.7
20260509151556 51 0 0.9 5.2 0.04 0.20 0.15 90 1009.8
20260509151051 50 321 0.9 2.6 0.04 0.20 0.15 90 1009.6
20260509150547 50 329 0.0 2.6 0.04 0.20 0.15 90 1009.7
20260509150055 50 281 0.0 1.7 0.05 0.20 0.15 91 1009.8
20260509145548 50 322 0.0 1.7 0.04 0.19 0.14 91 1009.9
20260509145047 50 312 0.0 1.7 0.04 0.19 0.14 91 1009.9
20260509144609 50 0 0.0 1.7 0.05 0.19 0.14 91 1009.8
20260509144048 50 331 0.0 3.5 0.04 0.18 0.13 91 1009.9
20260509143548 50 331 0.0 3.5 0.04 0.18 0.13 91 1009.9
20260509143053 50 0 0.0 2.6 0.05 0.18 0.13 92 1009.9
20260509142547 49 0 0.0 3.5 0.04 0.17 0.12 91 1009.9
20260509142047 49 349 0.0 3.5 0.04 0.17 0.12 91 1010.0
20260509141555 49 0 0.9 3.5 0.04 0.16 0.11 91 1010.1
20260509141048 49 314 0.0 1.7 0.04 0.16 0.11 92 1010.0
20260509140547 49 334 0.0 1.7 0.04 0.16 0.11 92 1009.9
20260509140107 49 326 0.0 2.6 0.03 0.15 0.10 93 1009.9
20260509135547 49 0 0.0 2.6 0.03 0.15 0.10 92 1009.9
20260509135048 49 326 0.0 2.6 0.04 0.15 0.10 93 1009.9
20260509134555 49 0 0.0 2.6 0.03 0.14 0.09 93 1009.8
20260509134049 49 302 0.9 2.6 0.03 0.14 0.09 93 1009.9
20260509133549 49 11 0.0 0.9 0.03 0.14 0.09 94 1010.0
20260509133102 49 0 0.0 0.0 0.02 0.13 0.08 94 1009.9
20260509132547 49 0 0.0 0.0 0.03 0.13 0.08 94 1009.9
20260509132047 49 0 0.0 0.0 0.03 0.13 0.08 94 1009.9
20260509131556 49 0 0.0 0.0 0.02 0.12 0.07 94 1009.8
20260509131052 49 0 0.0 0.0 0.02 0.12 0.07 94 1009.8
20260509130548 49 0 0.0 0.0 0.02 0.12 0.07 94 1009.7
20260509130101 48 0 0.0 0.0 0.03 0.12 0.07 94 1009.7
20260509125548 48 0 0.0 0.0 0.03 0.12 0.07 94 1009.6
20260509125047 48 0 0.0 0.9 0.02 0.11 0.06 94 1009.6
20260509124604 48 0 0.0 0.9 0.02 0.11 0.06 94 1009.6
20260509124047 48 0 0.0 0.0 0.02 0.11 0.06 94 1009.6
20260509123547 48 0 0.0 0.0 0.02 0.11 0.06 94 1009.8
20260509123057 48 0 0.0 0.0 0.02 0.11 0.06 94 1009.7
20260509122549 48 0 0.0 0.0 0.01 0.10 0.05 94 1009.9
20260509122048 47 0 0.0 0.0 0.01 0.10 0.05 94 1009.8
20260509121601 47 0 0.0 0.0 0.01 0.10 0.05 94 1009.9
20260509121049 47 0 0.0 0.0 0.01 0.10 0.05 94 1009.9
20260509120550 47 0 0.0 0.0 0.01 0.10 0.05 94 1009.9
20260509120051 47 0 0.0 0.0 0.00 0.09 0.04 94 1009.8
20260509115547 47 0 0.0 0.0 0.00 0.09 0.04 94 1010.0
20260509115047 47 0 0.0 0.0 0.00 0.09 0.04 94 1009.8
20260509114552 47 0 0.0 0.0 0.00 0.09 0.04 94 1009.8
20260509114047 47 0 0.0 0.0 0.00 0.09 0.04 94 1009.9
20260509113547 46 0 0.0 0.0 0.00 0.09 0.04 94 1009.9
20260509113057 46 0 0.0 0.0 0.00 0.09 0.04 94 1010.0
20260509112552 46 0 0.0 0.0 0.00 0.09 0.04 94 1009.9
20260509112048 46 0 0.0 0.0 0.00 0.09 0.04 94 1009.9
20260509111559 46 0 0.0 0.9 0.00 0.09 0.04 94 1010.0
20260509111048 46 0 0.0 0.9 0.00 0.09 0.04 94 1009.9
20260509110549 46 0 0.0 0.9 0.00 0.09 0.04 94 1009.9
20260509110052 46 318 0.0 0.0 0.00 0.09 0.04 94 1009.9
20260509105550 46 0 0.0 0.0 0.00 0.09 0.04 94 1010.0
20260509105048 45 0 0.0 0.0 0.00 0.09 0.04 94 1010.0
20260509104553 45 0 0.0 0.0 0.00 0.09 0.04 94 1010.0
20260509104048 45 0 0.0 0.0 0.00 0.09 0.04 94 1010.0
20260509103547 45 0 0.0 0.0 0.00 0.09 0.04 94 1009.9
20260509103052 45 0 0.0 0.0 0.00 0.09 0.04 94 1010.0
20260509102547 45 0 0.0 0.0 0.00 0.09 0.04 94 1009.8
20260509102048 45 0 0.0 0.0 0.00 0.09 0.04 94 1010.0
20260509101554 45 0 0.0 0.0 0.00 0.09 0.04 94 1010.1
20260509101047 45 0 0.0 0.0 0.00 0.09 0.04 94 1010.1
20260509100548 45 0 0.0 0.0 0.00 0.09 0.04 94 1010.1
20260509100054 45 0 0.0 0.0 0.00 0.09 0.04 94 1010.2
20260509095547 45 0 0.0 0.0 0.00 0.09 0.04 94 1010.3
20260509095047 45 0 0.0 0.0 0.00 0.09 0.04 94 1010.4
20260509094552 45 0 0.0 0.0 0.00 0.09 0.04 94 1010.4
20260509094048 45 0 0.0 0.0 0.00 0.09 0.04 94 1010.2
20260509093548 45 0 0.0 0.0 0.00 0.09 0.04 94 1010.3
20260509093052 45 0 0.0 0.0 0.00 0.09 0.04 94 1010.1
20260509092549 45 0 0.0 0.0 0.00 0.09 0.04 94 1010.2
20260509092047 45 0 0.0 0.0 0.00 0.09 0.04 94 1010.1
20260509091553 45 0 0.0 0.0 0.00 0.09 0.04 94 1010.1
20260509091048 45 0 0.0 0.0 0.00 0.09 0.04 94 1010.1
20260509090548 45 0 0.0 0.0 0.00 0.09 0.04 94 1010.0
20260509090108 45 0 0.0 0.0 0.00 0.09 0.04 94 1010.0
20260509085547 45 0 0.0 0.0 0.00 0.09 0.04 93 1010.1
20260509085047 45 0 0.0 0.0 0.00 0.09 0.04 93 1010.1
20260509084558 45 0 0.0 0.0 0.00 0.09 0.04 93 1010.3
20260509084047 45 0 0.0 0.0 0.00 0.09 0.04 93 1010.3
20260509083549 46 0 0.0 0.0 0.00 0.09 0.04 93 1010.4
20260509083059 46 0 0.0 0.0 0.00 0.09 0.04 93 1010.4
20260509082548 46 0 0.0 0.0 0.01 0.09 0.04 93 1010.5
20260509082051 46 0 0.0 0.0 0.01 0.09 0.04 93 1010.5
20260509081549 46 0 0.0 0.0 0.01 0.09 0.04 93 1010.6
20260509081048 46 0 0.0 0.0 0.01 0.09 0.04 93 1010.6
20260509080548 46 0 0.0 0.0 0.01 0.09 0.04 93 1010.8
20260509080053 46 0 0.0 0.0 0.02 0.09 0.04 93 1010.7
20260509075548 46 0 0.0 0.0 0.02 0.09 0.04 93 1010.7
20260509075047 46 0 0.0 0.0 0.02 0.09 0.04 93 1010.7
20260509074550 46 0 0.0 0.0 0.02 0.09 0.04 93 1010.7
20260509074050 46 0 0.0 0.0 0.02 0.09 0.04 93 1010.8
20260509073547 46 0 0.0 0.0 0.03 0.09 0.04 93 1010.7
20260509073053 46 0 0.0 0.0 0.02 0.08 0.03 93 1010.6
20260509072550 46 0 0.0 0.0 0.02 0.08 0.03 93 1010.6
20260509072049 46 0 0.0 0.0 0.02 0.08 0.03 93 1010.6
20260509071555 46 0 0.0 0.0 0.02 0.08 0.03 93 1010.9
20260509071047 46 0 0.0 0.0 0.02 0.08 0.03 93 1011.1
20260509070547 46 0 0.0 0.0 0.02 0.08 0.03 93 1011.1
20260509070050 46 0 0.0 0.0 0.01 0.07 0.02 93 1010.9
20260509065548 46 0 0.0 0.0 0.01 0.07 0.02 93 1010.8
20260509065048 46 0 0.0 0.0 0.02 0.07 0.02 93 1010.9
20260509064549 46 0 0.0 0.0 0.02 0.07 0.02 93 1010.9
20260509064048 46 0 0.0 0.0 0.02 0.07 0.02 93 1011.0
20260509063547 46 0 0.0 0.0 0.01 0.06 0.01 93 1011.0
20260509063102 46 0 0.0 0.0 0.01 0.06 0.01 93 1011.0
20260509062547 46 0 0.0 0.9 0.01 0.06 0.01 93 1011.3
20260509062047 46 0 0.0 0.9 0.01 0.06 0.01 93 1011.4
20260509061554 46 0 0.0 0.9 0.01 0.06 0.01 93 1011.6
20260509061048 46 0 0.0 0.9 0.01 0.06 0.01 93 1011.5
20260509060548 46 0 0.0 0.0 0.01 0.06 0.01 93 1011.7
20260509060058 46 0 0.0 0.0 0.01 0.06 0.01 93 1011.6
20260509055547 46 311 0.0 0.0 0.01 0.06 0.01 93 1011.7
20260509055047 46 0 0.0 0.0 0.00 0.05 0.00 93 1011.7
20260509054606 46 0 0.0 0.0 0.00 0.05 0.00 93 1011.5
20260509054048 46 0 0.0 0.0 0.00 0.05 0.00 93 1011.4
20260509053548 46 0 0.0 0.0 0.00 0.05 0.00 93 1011.5
20260509053119 46 0 0.0 1.7 0.00 0.05 0.00 94 1011.5
20260509052548 46 0 0.0 1.7 0.00 0.05 0.00 93 1011.5
20260509052047 45 0 0.0 0.0 0.00 0.05 0.00 93 1011.4
20260509051550 45 0 0.0 0.0 0.00 0.05 0.00 93 1011.0
20260509051048 45 0 0.0 0.0 0.00 0.05 0.00 93 1011.0
20260509050549 45 0 0.0 0.0 0.00 0.05 0.00 93 1010.9
20260509050057 45 0 0.0 0.0 0.00 0.05 0.00 93 1010.7
20260509045548 45 0 0.0 0.0 0.00 0.08 0.00 93 1010.6
20260509045050 45 0 0.0 0.9 0.01 0.08 0.00 93 1010.8
20260509044554 45 0 0.0 0.9 0.01 0.08 0.00 93 1011.0
20260509044048 45 0 0.0 0.0 0.01 0.08 0.00 93 1011.1
20260509043547 45 0 0.0 0.0 0.01 0.08 0.00 93 1011.0
20260509043104 45 0 0.0 0.0 0.01 0.08 0.00 93 1010.9
20260509042552 45 0 0.0 0.0 0.01 0.08 0.00 93 1010.8
20260509042051 45 316 0.0 0.0 0.01 0.08 0.00 93 1010.9
20260509041602 44 0 0.0 0.0 0.01 0.08 0.00 93 1011.0
20260509041048 44 0 0.0 0.0 0.01 0.08 0.00 93 1011.1
20260509040551 44 0 0.0 0.0 0.01 0.08 0.00 93 1011.1
20260509040121 44 0 0.0 0.0 0.01 0.08 0.00 93 1011.1
20260509035547 44 0 0.0 0.0 0.01 0.13 0.08 93 1011.1
20260509035049 43 0 0.0 0.0 0.00 0.12 0.07 93 1011.3
20260509034604 43 0 0.0 0.0 0.00 0.12 0.07 93 1011.2
20260509034048 43 0 0.0 0.0 0.00 0.12 0.07 93 1011.4
20260509033550 43 0 0.0 0.0 0.00 0.12 0.07 93 1011.5
20260509033054 43 0 0.0 0.0 0.00 0.12 0.07 93 1011.3
20260509032549 42 0 0.0 0.0 0.00 0.12 0.07 93 1011.4
20260509032044 42 0 0.0 0.0 0.00 0.12 0.07 93 1011.3
20260509031605 42 0 0.0 0.0 0.00 0.12 0.07 92 1011.4
20260509031047 41 0 0.0 0.0 0.00 0.12 0.07 92 1011.5
20260509030842 41 0 0.0 0.0 0.00 0.12 0.07 92 1011.5
20260509030053 41 315 0.0 0.0 0.00 0.12 0.07 92 1011.6
20260509030036 41 0 0.0 0.0 0.00 0.12 0.07 92 1011.5
20260509025546 41 0 0.0 0.0 0.00 0.12 0.07 92 1011.5
20260509025219 41 0 0.0 0.0 0.00 0.12 0.07 92 1011.3
20260509024554 41 0 0.0 0.0 0.00 0.12 0.07 91 1011.3
20260509024045 41 0 0.0 0.0 0.00 0.12 0.07 91 1011.2
20260509023546 41 0 0.0 0.0 0.00 0.12 0.07 91 1011.4
20260509023051 41 0 0.0 0.0 0.00 0.12 0.07 90 1011.3
20260509022548 42 0 0.0 0.0 0.00 0.12 0.07 90 1011.1
20260509022048 42 0 0.0 0.0 0.00 0.12 0.07 90 1011.2
20260509021553 42 0 0.0 0.0 0.00 0.12 0.07 90 1011.2
20260509021050 42 0 0.0 0.0 0.00 0.12 0.07 89 1011.3
20260509020550 43 0 0.0 0.0 0.00 0.12 0.07 89 1011.4
20260509020055 43 0 0.0 0.0 0.00 0.12 0.07 90 1011.4
20260509015545 44 0 0.0 0.0 0.00 0.12 0.07 89 1011.3
20260509015045 44 0 0.0 0.0 0.00 0.12 0.07 89 1011.5
20260509014600 44 0 0.0 0.9 0.00 0.12 0.07 88 1011.1
20260509014047 45 0 0.0 0.9 0.00 0.12 0.07 89 1011.0
20260509013547 46 0 0.0 0.9 0.00 0.12 0.07 89 1010.9
20260509013055 46 0 0.0 0.9 0.00 0.12 0.07 89 1010.9
20260509012545 47 306 0.0 1.7 0.00 0.12 0.07 89 1010.9
20260509012048 47 0 0.0 1.7 0.00 0.12 0.07 90 1010.8
20260509011552 47 0 0.9 1.7 0.00 0.12 0.07 90 1010.9
20260509011050 46 326 0.0 0.9 0.00 0.12 0.07 90 1011.0
20260509010553 46 0 0.0 0.9 0.00 0.12 0.07 90 1010.9
20260509010054 47 0 0.0 0.9 0.00 0.12 0.07 90 1010.8
20260509005548 47 0 0.0 0.9 0.00 0.12 0.07 90 1010.7
20260509005045 47 0 0.0 0.0 0.00 0.12 0.07 89 1010.7
20260509004555 47 0 0.0 0.0 0.00 0.12 0.07 89 1010.7
20260509004044 47 0 0.0 0.0 0.01 0.12 0.07 89 1010.7
20260509003547 47 0 0.0 0.0 0.01 0.12 0.07 89 1010.7
20260509003053 47 0 0.0 0.0 0.01 0.12 0.07 89 1010.6
20260509002546 47 0 0.0 0.0 0.01 0.12 0.07 88 1010.5
20260509002045 47 0 0.0 0.9 0.01 0.12 0.07 88 1010.5
20260509001555 47 0 0.0 0.9 0.01 0.12 0.07 88 1010.4
20260509001046 48 0 0.0 0.9 0.01 0.12 0.07 87 1010.3
20260509000548 48 326 0.0 0.9 0.01 0.12 0.07 86 1010.3
20260509000056 48 0 0.0 0.0 0.01 0.12 0.07 85 1010.3
20260508235545 48 0 0.0 0.0 0.01 0.12 0.07 84 1010.4
20260508235044 49 0 0.0 0.0 0.01 0.12 0.07 83 1010.5
20260508234554 49 0 0.0 0.0 0.01 0.12 0.07 81 1010.5
20260508234044 49 0 0.0 0.0 0.00 0.11 0.06 80 1010.4
20260508233545 49 0 0.0 0.9 0.00 0.11 0.06 80 1010.4
20260508233106 49 0 0.0 0.9 0.00 0.11 0.06 80 1010.3
20260508232544 49 0 0.0 0.0 0.00 0.11 0.06 78 1010.3
20260508232044 49 326 0.0 0.9 0.00 0.11 0.06 78 1010.2
20260508231556 50 0 0.0 0.9 0.00 0.11 0.06 77 1010.1
20260508231049 50 0 0.0 1.7 0.00 0.11 0.06 76 1010.2
20260508230545 50 0 0.0 1.7 0.00 0.11 0.06 76 1010.1
20260508225545 50 345 0.9 3.5 0.00 0.11 0.06 75 1010.0
20260508225045 50 329 1.7 3.5 0.00 0.11 0.06 75 1010.0